Starlink 31870

operational
NORAD ID: 59787 Int'l Des: 2024-093 Owner: SPXS Country: US Constellation: starlink
LEOCIRCULAR

About Starlink 31870

Description loading...

Live Position

Loading 3D Globe...

Upcoming Passes

Altitude History

Altitude vs Time

uPlot chart will show altitude changes over time

Two-Line Element Set

1 59787U 24093F 25259.00167671 .00002172 00000-0 88412-4 0 9994
2 59787 43.0050 115.0544 0001718 267.5746 92.4909 15.27586259 75986
Epoch: Sep 16, 2025 • Age: 56 hours

Current Status

Altitude 492.8 km
Velocity 7.62 km/s
Sub-Earth Point -36.76°S, 143.03°W
Launch Date May 18, 2024
Age 1.3 years
Type internet

Technical Details

Classification Payload
Mass 730.00 kg
Dry Mass 700.00 kg
Total Mass 730.00 kg
Length 0.30 m
Diameter 4.10 m
Span 29.00 m
Shape Box + pan
Manufacturer SPXS
Bus Type Starlink V2M
Phase Status In Orbit
Owner/State SPXS/US

Large Constellations

Loading constellations...